Probability
0 0 0 0 0 0 0 0 0 0 0 0 0 10 16 16 26 26 23 29 16 16 13 16 16 19 23 23 23 29 35 42 52 55 61 65 61 71 65 58 45 48 42 58
0 0 0 0 0 0 0 0 0 0 0 3 3 13 19 19 26 26 19 23 13 13 10 13 16 16 19 19 16 19 16 23 35 39 48 61 52 55 61 45 48 45 39 32
0 0 0 0 0 0 0 0 0 0 0 3 6 13 19 19 19 32 19 16 16 3 13 13 13 16 16 16 16 16 19 19 19 23 35 45 55 45 29 35 42 35 35 29
0 0 0 0 0 0 0 0 0 0 0 3 3 0 16 19 23 23 19 23 13 10 10 10 6 10 13 13 16 16 19 19 16 19 29 32 39 35 26 29 29 29 29 29
0 0 0 0 0 0 0 0 0 0 0 0 0 0 6 26 26 29 26 16 10 10 10 10 6 10 10 10 13 16 19 19 13 13 16 23 23 26 26 23 29 29 29 26
0 0 0 0 0 0 0 0 0 0 0 0 0 0 0 3 10 10 23 13 6 6 6 6 6 6 10 10 13 13 16 16 10 10 13 16 16 16 16 19 19 19 26 16
0 0 0 0 0 0 0 0 0 0 0 0 0 0 3 6 6 10 16 13 6 3 3 6 6 6 10 6 6 6 6 10 10 6 13 13 13 13 10 16 16 16 10 10
0 0 0 0 0 0 0 0 0 0 0 0 0 0 6 3 6 10 13 10 6 3 3 6 6 6 10 6 6 6 3 3 3 0 6 10 10 6 3 6 10 10 10 6
0 0 0 0 0 0 0 0 0 0 0 0 0 0 3 0 6 6 6 3 6 3 3 6 6 3 6 6 6 10 6 6 0 0 0 3 3 3 3 0 3 6 6 6
0 0 0 0 0 0 0 0 0 0 0 0 0 0 0 13 0 6 6 6 3 0 3 3 3 3 3 0 0 3 3 3 0 0 0 0 0 0 0 0 3 6 6 6
0 0 0 0 0 0 0 0 0 0 0 0 0 0 0 6 10 10 6 3 0 0 3 3 3 3 3 3 0 3 3 0 0 0 0 0 0 0 0 0 0 6 3 3
0 0 0 0 0 0 0 0 0 0 0 0 0 0 0 0 3 6 6 3 0 3 3 3 3 0 3 3 0 0 0 0 0 0 0 0 0 0 0 0 0 3 0 0
0 0 0 0 0 0 0 0 0 0 0 0 0 0 0 0 0 6 3 3 3 3 3 3 3 0 3 0 0 0 0 0 0 0 0 0 0 0 0 0 0 0 0 0
0 0 0 0 0 0 0 0 0 0 0 0 0 0 0 0 0 3 3 0 3 3 3 3 3 0 3 0 0 0 0 0 0 0 0 0 0 0 0 0 0 0 0 0
0 0 0 0 0 0 0 0 0 0 0 0 0 0 0 3 0 6 3 0 0 3 3 3 0 0 0 0 0 0 0 0 0 0 0 0 0 0 0 0 0 0 0 0
0 0 0 0 0 0 0 0 0 0 0 0 0 0 3 0 0 6 0 0 3 3 3 0 0 0 0 0 0 0 0 0 0 0 0 0 0 0 0 0 0 0 0 0
0 0 0 0 0 0 0 0 0 0 0 0 0 0 3 0 0 3 3 0 3 0 0 0 0 0 0 0 0 0 0 0 0 0 0 0 0 0 0 0 0 0 0 0
0 0 0 0 0 0 0 0 0 0 0 0 0 0 0 0 0 0 0 0 0 0 0 0 0 0 0 0 0 0 0 0 0 0 0 0 0 0 0 0 0 0 0 0
0 0 0 0 0 0 0 0 0 0 0 0 0 0 0 0 0 0 0 0 0 0 0 0 0 0 0 0 0 0 0 0 0 0 0 0 0 0 0 0 0 0 0 0
0 0 0 0 0 0 0 0 0 0 0 0 0 0 0 0 0 0 0 0 0 0 0 0 0 0 0 0 0 0 0 0 0 0 0 0 0 0 0 0 0 0 0 0
0 0 0 0 0 0 0 0 0 0 0 0 0 0 0 0 3 0 0 0 0 0 0 0 0 0 0 0 0 0 0 0 0 0 0 0 0 0 0 0 0 0 0 0
0 0 0 0 0 0 0 0 0 3 0 3 3 0 0 0 0 0 0 0 0 0 0 0 0 0 0 0 0 0 0 0 0 0 0 0 0 0 0 0 0 0 0 0
0 0 0 0 0 0 0 0 0 0 0 0 0 0 0 0 0 0 0 0 0 0 0 0 0 0 0 0 0 0 0 0 0 0 0 0 0 0 0 0 0 0 0 0
0 0 0 0 0 0 3 0 0 0 0 0 0 0 0 0 0 0 0 0 0 0 0 0 0 0 0 0 0 0 0 0 0 0 0 0 0 0 0 0 0 0 0 0
0 0 0 0 0 0 3 0 0 0 0 0 0 0 0 0 0 0 0 0 0 0 0 0 0 0 0 0 0 0 0 0 0 0 0 0 0 0 0 0 0 0 0 0
0 0 0 0 0 3 0 0 0 0 0 0 0 0 0 0 0 0 0 0 0 0 0 0 0 0 0 0 0 0 0 0 0 0 0 0 0 0 0 0 0 0 0 0
Height
5800 5804 5806 5809 5811 5814 5817 5820 5822 5823 5824 5826 5828 5828 5829 5830 5831 5831 5831 5831 5831 5831 5830 5830 5829 5829 5829 5829 5829 5829 5829 5829 5829 5829 5829 5829 5830 5831 5832 5833 5833 5834 5835 5836
5800 5803 5805 5807 5810 5812 5815 5818 5820 5821 5822 5824 5825 5826 5826 5826 5827 5827 5827 5826 5826 5825 5825 5824 5823 5822 5822 5822 5822 5822 5821 5821 5821 5821 5822 5822 5822 5823 5824 5825 5825 5826 5827 5828
5800 5802 5804 5806 5809 5811 5814 5817 5818 5819 5820 5821 5823 5823 5823 5823 5823 5822 5822 5821 5821 5820 5819 5818 5817 5816 5815 5815 5815 5814 5814 5814 5813 5814 5814 5814 5815 5815 5816 5817 5818 5818 5819 5820
5798 5801 5803 5806 5808 5810 5813 5814 5815 5817 5819 5820 5821 5823 5820 5819 5818 5818 5817 5816 5815 5814 5813 5812 5811 5809 5808 5808 5808 5808 5807 5807 5807 5807 5807 5807 5808 5808 5809 5809 5810 5811 5812 5813
5798 5800 5803 5805 5807 5809 5811 5812 5814 5815 5817 5818 5818 5819 5819 5816 5815 5814 5813 5811 5810 5809 5808 5806 5804 5803 5802 5802 5801 5801 5800 5800 5800 5800 5800 5800 5800 5801 5801 5802 5802 5803 5804 5805
5798 5800 5802 5804 5806 5807 5809 5811 5812 5813 5815 5816 5816 5816 5816 5812 5811 5810 5808 5807 5805 5804 5802 5800 5799 5797 5796 5796 5795 5795 5794 5794 5793 5793 5793 5793 5793 5793 5794 5794 5795 5795 5797 5798
5798 5799 5801 5803 5805 5806 5808 5811 5813 5814 5814 5815 5812 5812 5812 5809 5807 5806 5804 5803 5801 5799 5797 5795 5793 5792 5791 5790 5790 5789 5789 5788 5787 5787 5787 5786 5786 5787 5787 5787 5788 5788 5789 5791
5798 5800 5800 5802 5804 5805 5806 5809 5812 5813 5813 5812 5809 5808 5808 5805 5803 5802 5800 5798 5796 5794 5792 5790 5789 5787 5786 5785 5785 5784 5783 5782 5782 5781 5781 5781 5780 5780 5781 5781 5781 5782 5783 5784
5797 5799 5799 5800 5801 5803 5804 5806 5807 5808 5808 5808 5807 5805 5803 5802 5800 5798 5796 5794 5792 5790 5788 5786 5785 5783 5782 5781 5780 5779 5778 5777 5776 5776 5775 5775 5775 5775 5775 5775 5775 5775 5776 5777
5793 5796 5797 5797 5799 5800 5802 5802 5803 5804 5805 5805 5805 5803 5802 5798 5796 5795 5793 5791 5789 5787 5785 5783 5781 5779 5778 5776 5775 5773 5772 5772 5771 5771 5770 5769 5769 5769 5769 5769 5769 5770 5770 5771
5791 5793 5795 5795 5796 5798 5799 5800 5800 5801 5801 5802 5802 5803 5797 5795 5793 5791 5789 5787 5785 5783 5780 5778 5776 5775 5773 5771 5770 5768 5767 5766 5766 5765 5765 5764 5764 5763 5763 5763 5763 5764 5764 5765
5788 5790 5792 5793 5793 5794 5795 5796 5797 5798 5797 5797 5797 5799 5792 5790 5789 5787 5785 5783 5781 5778 5776 5774 5772 5770 5768 5766 5765 5763 5762 5761 5760 5760 5759 5758 5758 5758 5758 5758 5758 5758 5759 5759
5785 5787 5789 5790 5792 5792 5792 5792 5793 5793 5793 5793 5793 5794 5788 5786 5784 5783 5780 5778 5776 5774 5771 5769 5767 5765 5763 5761 5759 5758 5756 5755 5754 5754 5753 5752 5752 5752 5752 5752 5752 5753 5753 5753
5781 5783 5786 5788 5788 5788 5788 5789 5789 5789 5789 5789 5788 5787 5784 5781 5780 5778 5776 5773 5771 5768 5766 5764 5761 5759 5757 5755 5753 5752 5750 5749 5748 5747 5747 5746 5746 5746 5746 5746 5747 5747 5747 5747
5778 5780 5781 5782 5783 5784 5784 5785 5785 5785 5784 5784 5783 5781 5779 5777 5775 5773 5770 5768 5765 5763 5760 5758 5755 5753 5751 5749 5747 5745 5743 5742 5741 5741 5740 5740 5740 5739 5740 5740 5741 5741 5741 5742
5773 5775 5777 5778 5779 5780 5780 5780 5780 5780 5779 5779 5778 5776 5773 5771 5769 5767 5765 5762 5760 5757 5754 5751 5749 5746 5744 5742 5740 5738 5737 5736 5735 5734 5734 5733 5733 5733 5733 5734 5734 5735 5735 5736
5769 5771 5772 5774 5775 5776 5777 5776 5776 5775 5775 5774 5773 5771 5768 5766 5764 5761 5759 5756 5754 5751 5748 5745 5742 5739 5737 5735 5733 5731 5730 5729 5728 5727 5726 5726 5726 5726 5726 5727 5727 5728 5729 5730
5765 5766 5768 5769 5771 5772 5774 5772 5771 5771 5769 5768 5767 5765 5763 5760 5758 5755 5752 5750 5747 5744 5741 5738 5735 5732 5730 5728 5726 5724 5723 5722 5721 5720 5720 5719 5719 5720 5720 5721 5721 5722 5723 5724
5761 5763 5764 5765 5767 5768 5768 5767 5766 5766 5764 5763 5761 5759 5757 5754 5751 5749 5746 5743 5740 5737 5734 5731 5728 5725 5723 5721 5719 5717 5716 5715 5714 5713 5713 5713 5713 5713 5714 5715 5716 5717 5718 5719
5758 5759 5761 5761 5762 5763 5764 5762 5761 5762 5759 5758 5756 5754 5751 5749 5746 5744 5740 5736 5733 5730 5727 5724 5721 5719 5716 5715 5713 5711 5710 5709 5708 5708 5707 5707 5708 5708 5709 5710 5711 5713 5714 5715
5755 5755 5756 5757 5758 5758 5758 5757 5758 5758 5756 5752 5750 5748 5746 5744 5742 5738 5734 5731 5727 5724 5721 5718 5715 5713 5711 5709 5707 5706 5705 5704 5703 5702 5702 5703 5703 5704 5705 5706 5707 5709 5710 5712
5751 5751 5752 5753 5754 5755 5753 5753 5753 5752 5750 5747 5746 5744 5741 5739 5736 5732 5728 5725 5721 5718 5715 5712 5710 5708 5705 5704 5702 5701 5700 5699 5698 5698 5698 5699 5700 5701 5702 5703 5704 5706 5707 5709
5746 5748 5748 5750 5751 5750 5749 5748 5748 5747 5745 5743 5741 5739 5737 5734 5731 5727 5724 5720 5717 5714 5711 5708 5705 5703 5701 5700 5698 5697 5697 5696 5696 5696 5696 5697 5698 5699 5700 5701 5702 5704 5705 5707
5743 5743 5744 5745 5746 5746 5745 5745 5744 5743 5741 5740 5738 5736 5733 5730 5727 5723 5719 5716 5712 5709 5706 5704 5701 5699 5698 5696 5695 5694 5694 5694 5694 5694 5694 5695 5696 5697 5698 5700 5701 5702 5704 5705
5740 5740 5741 5742 5743 5743 5742 5742 5741 5740 5739 5737 5735 5733 5730 5727 5723 5720 5716 5713 5709 5706 5703 5700 5698 5696 5695 5693 5693 5692 5692 5692 5692 5693 5693 5694 5695 5696 5698 5699 5700 5701 5703 5704
5737 5738 5739 5740 5740 5740 5740 5739 5738 5738 5736 5735 5733 5730 5727 5724 5720 5717 5714 5710 5707 5704 5701 5698 5696 5694 5693 5692 5692 5691 5691 5692 5692 5692 5693 5694 5695 5696 5697 5699 5700 5701 5702 5704
Wind_Speed
9 10 10 12 13 13 12 12 12 13 12 13 14 15 16 17 18 19 20 21 21 22 23 24 25 26 26 27 27 28 28 28 29 30 31 32 32 33 32 32 32 31 32 33
10 10 10 10 10 11 10 9 10 11 12 12 13 14 15 16 17 18 18 19 21 22 23 23 24 25 26 26 27 28 29 28 29 30 31 33 33 34 34 33 33 32 32 32
11 10 9 9 9 10 10 9 10 11 11 11 12 13 15 16 17 18 19 20 20 21 22 23 24 25 25 26 27 27 28 27 28 29 30 31 31 32 32 33 33 32 32 32
10 9 8 8 9 9 9 10 9 9 8 11 10 10 15 15 16 18 18 19 20 20 21 21 22 23 24 25 26 26 26 27 28 28 29 30 30 31 32 32 32 32 31 31
9 9 9 9 8 8 9 8 8 8 8 9 10 8 13 13 14 16 17 17 18 19 20 20 21 22 22 23 24 24 25 26 27 27 27 28 29 30 31 31 31 31 31 31
9 9 8 8 8 8 7 6 6 7 7 8 9 8 10 11 12 13 14 15 16 18 19 19 19 20 20 21 22 23 24 24 25 25 26 27 27 28 29 30 30 30 31 31
8 9 8 7 7 7 7 6 5 6 7 8 10 8 9 11 11 13 14 15 15 17 17 18 19 19 19 19 20 21 22 22 23 23 24 25 25 25 26 27 27 28 29 31
9 9 9 8 8 8 7 7 7 7 7 9 11 9 10 10 11 13 14 14 15 16 17 17 16 17 17 18 19 20 21 21 22 22 22 23 24 24 23 24 25 26 27 28
11 12 10 9 8 8 8 8 9 8 8 9 10 11 11 11 12 13 14 14 15 16 16 15 15 16 17 17 18 19 20 20 20 21 21 22 22 23 22 22 23 24 25 27
11 11 11 10 9 9 9 9 9 7 8 8 9 11 11 12 13 14 14 15 16 16 16 16 16 16 17 18 18 19 19 19 18 19 20 20 21 22 22 22 23 24 24 25
11 12 12 12 11 11 11 10 9 9 10 9 9 11 13 14 14 15 15 16 17 17 17 17 17 17 17 18 19 19 19 19 19 20 20 21 21 21 22 22 23 24 24 25
13 13 13 14 13 12 12 11 11 11 12 11 11 13 14 15 16 16 17 18 18 18 18 18 18 18 18 18 19 20 20 21 21 21 21 21 21 22 22 22 22 22 23 24
14 13 13 13 14 14 13 13 13 13 13 13 12 14 16 17 17 17 18 19 19 19 20 20 20 20 20 21 21 22 22 22 22 22 22 22 22 22 22 22 22 22 23 23
15 15 14 15 15 15 15 15 14 14 13 14 14 16 19 18 18 19 20 20 21 21 21 22 22 22 23 23 23 23 23 23 23 23 23 23 23 23 23 23 23 23 23 23
15 16 16 16 16 16 15 16 16 16 16 16 16 18 19 20 20 21 21 21 22 22 23 23 23 23 24 24 24 24 24 24 24 24 23 23 23 24 23 23 24 24 24 23
15 16 16 16 16 15 15 16 17 17 17 17 18 19 20 21 21 22 22 22 23 23 24 25 25 25 25 25 25 24 24 25 25 25 24 23 23 24 24 24 24 23 23 23
14 15 15 15 15 15 15 15 16 17 18 18 19 19 20 21 22 23 23 24 24 25 26 27 27 26 26 25 25 24 24 24 24 24 24 24 23 23 23 23 22 22 22 22
13 14 14 13 13 15 15 15 16 18 18 18 19 20 21 22 23 23 24 25 25 26 26 26 26 25 25 24 23 23 23 22 22 22 23 23 22 22 21 21 21 21 20 20
12 12 13 13 14 14 16 16 16 16 18 19 20 21 22 22 23 23 24 25 25 26 26 25 25 24 23 22 22 21 21 20 20 20 20 20 20 19 19 19 19 19 18 17
11 11 12 12 13 15 16 15 15 16 19 19 20 20 21 21 21 22 23 24 24 24 24 24 24 22 21 21 20 19 19 19 18 17 16 16 16 16 16 16 16 16 16 15
10 11 11 11 12 14 14 13 14 16 18 18 18 19 19 19 21 22 23 23 23 23 22 22 21 20 19 19 18 17 17 15 14 14 14 13 12 12 12 12 13 13 13 13
10 10 10 11 12 13 12 13 14 15 16 16 17 18 18 19 20 21 22 22 21 21 20 19 18 18 17 17 16 14 13 11 10 10 10 9 10 10 10 9 10 10 11 11
9 9 9 10 11 11 11 12 12 12 14 15 15 16 17 19 20 20 20 20 20 19 18 17 17 16 15 14 13 10 9 8 7 7 7 7 8 8 8 8 8 9 9 10
7 7 8 8 9 9 10 10 10 11 12 12 13 14 16 18 18 18 19 19 18 17 16 15 14 13 12 11 9 7 6 5 4 4 5 6 6 6 6 6 7 8 7 7
5 6 7 7 7 8 9 9 9 9 10 11 12 14 16 17 17 17 18 17 16 15 14 13 12 11 9 7 6 4 3 2 3 3 4 4 5 7 6 6 6 6 6 6
5 5 6 6 6 7 8 8 8 8 9 10 12 13 15 16 16 16 16 16 15 13 12 10 9 7 6 4 2 1 0 1 2 3 3 3 5 6 6 6 6 6 5 5
Wind_Direction
188 187 191 194 194 200 204 208 219 229 231 232 238 246 252 256 257 260 262 263 264 265 267 267 266 264 263 262 263 264 263 263 263 262 259 259 257 256 256 256 255 256 257 256
179 188 192 193 195 198 202 208 224 234 239 243 249 255 260 261 260 263 265 266 267 268 268 269 267 265 263 262 263 265 265 264 262 261 259 259 258 257 258 258 257 258 257 255
181 191 188 189 193 196 203 208 228 242 250 253 257 265 265 262 261 264 267 268 268 267 269 270 269 267 265 264 263 264 263 262 261 260 259 258 257 258 256 256 257 256 255 255
185 186 186 189 193 192 211 223 234 248 253 261 261 263 271 263 264 265 267 269 270 270 272 275 274 269 266 266 265 264 264 263 261 259 258 257 257 258 257 257 255 255 254 254
190 189 190 194 197 200 216 227 239 250 251 260 271 260 270 271 270 269 270 273 274 275 277 280 278 272 268 266 266 265 264 264 263 260 258 258 258 258 257 256 256 254 254 252
197 199 200 202 206 211 221 233 249 256 262 266 267 265 271 278 276 275 276 279 279 280 281 281 281 277 271 269 267 265 265 264 264 261 260 259 259 258 257 256 256 254 252 250
202 205 208 210 214 223 229 237 261 267 267 264 269 272 268 278 282 283 285 288 288 287 287 285 283 281 275 273 270 270 268 266 264 262 260 260 260 259 257 257 256 255 254 250
203 218 218 217 219 233 241 236 241 248 254 262 278 277 277 283 286 289 292 296 296 296 295 292 288 286 282 279 276 275 272 268 267 266 263 262 261 259 259 257 255 255 255 252
203 220 229 230 236 240 246 245 248 258 260 264 274 277 279 285 291 295 296 297 300 301 298 296 292 289 287 284 281 279 274 272 271 269 266 266 265 263 260 259 256 255 254 253
214 221 235 236 241 243 245 255 262 264 265 270 278 284 280 285 291 295 298 300 302 303 301 299 297 293 289 286 285 282 278 276 274 271 268 267 266 266 263 260 259 259 257 256
221 225 237 241 243 249 253 258 264 269 265 268 275 278 278 284 289 293 297 300 302 303 301 300 300 298 294 290 286 283 280 278 276 274 271 270 269 268 266 261 259 258 257 256
228 231 236 244 248 248 253 258 267 274 278 276 278 281 280 284 288 292 297 299 301 303 303 302 301 299 296 293 291 287 283 281 279 276 275 273 270 269 268 262 259 258 258 257
232 234 237 247 254 252 254 262 270 273 275 277 281 285 284 287 289 292 296 298 300 301 302 302 301 300 298 295 293 290 286 283 281 280 277 274 272 270 268 263 261 260 258 257
238 236 236 238 248 255 258 264 270 274 276 277 279 281 286 289 292 294 297 298 299 300 300 300 299 298 297 295 293 291 288 285 283 281 279 276 273 272 268 264 262 262 259 257
242 242 243 245 249 253 257 263 267 271 274 276 280 283 287 290 292 296 298 299 300 300 300 300 300 299 296 294 293 291 287 284 283 281 279 277 274 271 269 267 265 263 260 258
246 247 249 250 252 254 259 264 268 271 274 277 282 286 288 290 292 296 298 300 301 301 302 302 301 299 297 294 292 289 286 283 281 278 276 276 274 270 269 268 266 264 263 261
248 249 250 250 252 256 262 263 265 270 275 280 284 288 290 293 294 296 297 299 301 301 302 302 301 299 297 294 292 289 286 282 279 277 274 275 274 270 267 266 264 262 262 260
249 250 249 248 250 252 258 262 268 273 278 281 284 289 293 296 297 297 298 299 300 301 301 300 299 297 296 294 292 289 286 282 279 276 274 274 272 267 264 263 260 259 258 259
249 250 252 250 252 257 262 266 270 275 280 283 286 291 296 299 300 300 300 300 301 302 301 300 299 298 298 296 292 287 286 283 282 279 274 271 266 261 259 258 256 258 257 255
253 253 255 255 254 257 263 270 271 275 281 286 289 293 298 300 301 303 304 304 304 303 302 302 303 301 299 297 293 290 287 285 282 277 272 266 262 259 257 255 252 252 250 250
258 255 254 254 255 259 266 271 272 277 284 291 295 297 300 301 303 305 306 307 307 306 305 305 304 301 299 298 296 292 290 285 280 272 266 260 256 252 250 249 243 241 239 240
262 259 254 252 255 260 267 272 276 281 286 291 295 298 302 305 306 308 310 311 311 310 309 308 306 303 301 300 298 294 291 284 278 266 259 252 246 245 242 242 236 230 230 230
258 257 253 250 253 260 270 276 283 289 292 295 297 301 305 310 312 314 315 315 316 315 313 310 307 305 303 303 301 295 290 286 278 261 251 242 236 230 226 225 224 222 222 222
258 254 247 244 250 263 274 280 290 297 302 305 307 309 313 316 317 319 319 320 320 318 316 314 312 310 306 304 301 294 287 282 269 249 232 227 218 214 215 214 213 216 217 211
256 247 241 243 251 267 278 282 289 297 305 311 315 320 322 322 323 323 325 326 326 325 323 320 316 314 313 312 306 297 285 276 244 216 198 202 207 205 199 195 192 193 197 197
254 244 240 246 258 272 279 282 290 304 312 317 322 325 328 329 329 328 330 332 334 334 333 333 332 333 331 330 332 327 210 173 164 169 172 169 165 166 168 172 173 171 173 171